Location: Newark
(30.0333°N, 31.2167°E)
Time: 23:25:41
(UTC+00:00)

Vanguard 3 - Pass Details

Date: 24 January 2020
Orbit: 508 x 3263 km, 33.3° (Epoch: 23 February)

Event Time Altitude Azimuth Distance (km) Brightness Sun altitude
Rises 19:29:26 0° 282° (WNW) 7,082 12.5 -52.7°
Reaches altitude 10° 19:34:35 10° 283° (WNW) 5,848 11.9 -53.8°
Enters shadow 19:46:17 48° 288° (WNW) 2,953 9.9 -56.3°
